{"data":{"norad_id":44057,"intl_designator":"2019-010A","name":"ONEWEB-0012","alt_names":[],"object_type":"PAYLOAD","status":"ACTIVE","operator":null,"country":"UK","launch_date":"2019-02-27","launch_site_code":"FRGUI","launch_vehicle":null,"mission":null,"orbit_class":"UNKNOWN","rcs_meters":null,"size_class":null,"mass_kg":null,"dimensions":null,"purposes":["comms"],"wikipedia_slug":null,"has_3d_model":false,"image_url":null,"decayed_at":null,"tle_current":{"epoch":"2026-05-25T05:25:34.544064Z","epoch_age_seconds":52690,"freshness":"FRESH","line1":"1 44057U 19010A   26145.22609426  .00000084  00000+0  18678-3 0  9994","line2":"2 44057  87.9106 233.3439 0002299  92.4665 267.6729 13.16593331348542","mean_motion":13.16593331,"eccentricity":0.0002299,"inclination_deg":87.9106,"raan_deg":233.3439,"arg_perigee_deg":92.4665,"mean_anomaly_deg":267.6729,"bstar":0.00018678,"rev_number":34854,"period_min":109.37318047223,"perigee_km":1196.0185205598,"apogee_km":1199.5019181013,"semimajor_km":7575.8972193306,"source":"CELESTRAK","updated_at":"2026-05-25T13:38:22.330176Z"}}}